Regional Weather Roundup
Issued by NWS

Home | Current Version | Previous Version | Graphics & Text | Print | Product List | Glossary On
Versions: 1 2 3 4 5 6 7 8 9 10 11 12 13 14 15 16 17 18 19 20 21 22 23 24 25 26 27 28 29 30 31 32 33 34 35 36 37 38 39 40 41 42 43 44 45 46 47 48 49 50
000
ASUS43 KTOP 161259
RWRKS

WEATHER ROUNDUP FOR KANSAS
NATIONAL WEATHER SERVICE GOODLAND KS
700 AM CST SAT DEC 16 2017

NOTE:  "FAIR" INDICATES FEW OR NO CLOUDS BELOW 12,000 FEET WITH NO
SIGNIFICANT WEATHER AND/OR OBSTRUCTIONS TO VISIBILITY.

KSZ001>006-013>018-027>032-041>047-161400-
NORTHWEST KANSAS

CITY           SKY/WX    TMP DP  RH WIND       PRES   REMARKS
GOODLAND       CLOUDY    26  11  52 W6        29.73S
HAYS           CLOUDY    27  17  66 S6        29.76S
HILL CITY      CLOUDY    24  13  62 W3        29.75S
RUSSELL        CLOUDY    25  18  74 S10       29.75S WCI  15
$$

KSZ061>065-074>080-084>089-161400-
SOUTHWEST KANSAS

CITY           SKY/WX    TMP DP  RH WIND       PRES   REMARKS
DODGE CITY     CLOUDY    28  18  66 S15       29.78R WCI  16
GARDEN CITY    CLOUDY    21  14  74 S9        29.74F
GREAT BEND     CLOUDY    27  19  72 S8        29.78S
LIBERAL        CLOUDY    28  21  75 SW12      29.78S WCI  18
$$

KSZ066>073-081>083-090>101-161400-
SOUTHEAST KANSAS

CITY           SKY/WX    TMP DP  RH WIND       PRES   REMARKS
CHANUTE        CLEAR     36  23  59 S15       29.95R WCI  27
COFFEYVILLE    CLEAR     37  24  59 S14       29.99R WCI  28
HUTCHINSON     CLOUDY    28  22  78 S8        29.84R
MEDICINE LODGE   N/A     29  22  75 SE6       29.86S
PARSONS        CLEAR     37  24  59 S12G20    29.97S WCI  29
WICHITA INTL   CLOUDY    32  25  75 S12       29.88R WCI  23
WICHITA JABRA  CLOUDY    35  25  66 S15       29.88R WCI  25
WICHITA MCCONL CLOUDY    33  24  68 SW13      29.89R WCI  24
WINFIELD       CLEAR     36  26  67 S9        29.93R
$$

KSZ007>012-019>026-033>040-048>060-102>105-161400-
NORTHEAST KANSAS

CITY           SKY/WX    TMP DP  RH WIND       PRES   REMARKS
CONCORDIA      CLOUDY    32  21  64 SW9       29.77S
EMPORIA        CLOUDY    31  23  72 S13       29.87R WCI  21
LAWRENCE       CLOUDY    33  24  69 E7        29.87S
MANHATTAN      CLOUDY    34  24  67 SW7       29.82R
OLATHE IND     CLEAR     36  24  62 S10       29.88S WCI  28
OLATHE EXE     CLEAR     32  24  72 S8        29.88S
SALINA         CLOUDY    34  24  67 VRB3      29.82R
TOPEKA BILLARD PTCLDY   N/A N/A N/A S5        29.85S
TOPEKA FORBES  CLOUDY    36  25  64 S12       29.84S WCI  28
$$




USA.gov is the U.S. government's official web portal to all federal, state and local government web resources and services.